Weather observations for the past three days for
St. Paul Island, St. Paul Island Airport
| Date | Time (akdt) | Wind (mph) | Vis. (mi.) | Weather | Sky Cond. | Temperature (ºF) | Relative Humidity | Wind Chill (°F) | Heat Index (°F) | Pressure | Precipitation (in) | ||||||
|---|---|---|---|---|---|---|---|---|---|---|---|---|---|---|---|---|---|
| Air | Dwpt | 6 hour | altimeter (in) | sea level (mb) | 1 hr | 3 hr | 6 hr | ||||||||||
| Max. | Min. | ||||||||||||||||
| 03 | 16:53 | SE 7 | 10.00 | Fair | CLR | 34 | 27 | 76% | 29 | 30.18 | 1022.1 | ||||||
| 03 | 15:53 | SE 10 | 10.00 | Fair | CLR | 34 | 27 | 36 | 30 | 76% | 27 | 30.18 | 1022.2 | ||||
| 03 | 14:53 | E 9 | 10.00 | Fair | CLR | 35.1 | 28 | 76% | 29 | 30.19 | 1022.3 | ||||||
| 03 | 13:53 | E 9 | 10.00 | Fair | CLR | 34 | 27 | 76% | 27 | 30.19 | 1022.5 | ||||||
| 03 | 12:53 | E 8 | 10.00 | Fair | CLR | 33.1 | 27 | 78% | 27 | 30.19 | 1022.6 | ||||||
| 03 | 11:53 | E 8 | 10.00 | A Few Clouds | FEW011 | 32 | 27 | 82% | 25 | 30.2 | 1022.6 | ||||||
| 03 | 10:53 | E 7 | 10.00 | Partly Cloudy | SCT011 | 32 | 26.1 | 79% | 26 | 30.2 | 1022.8 | ||||||
| 03 | 08:53 | NE 5 | 10.00 | Overcast | OVC011 | 27 | 25 | 92% | 22 | 30.18 | 1022.2 | ||||||
| 03 | 07:53 | N 5 | 10.00 | Partly Cloudy | SCT010 | 23 | 21.9 | 96% | 18 | 30.18 | 1022.0 | ||||||
| 03 | 06:53 | NE 5 | 10.00 | A Few Clouds | FEW011 | 23 | 21 | 92% | 18 | 30.17 | 1021.9 | ||||||
| 03 | 05:53 | N 6 | 10.00 | Mostly Cloudy | BKN012 | 25 | 23 | 92% | 19 | 30.17 | 1021.7 | ||||||
| 03 | 04:53 | N 6 | 10.00 | Partly Cloudy | SCT013 | 26.1 | 24.1 | 92% | 20 | 30.17 | 1021.6 | ||||||
| 03 | 02:53 | N 12 | 10.00 | Overcast | OVC011 | 30 | 26.1 | 85% | 21 | 30.17 | 1021.6 | ||||||
| 03 | 01:53 | N 9 | 10.00 | Overcast | OVC011 | 28.9 | 26.1 | 89% | 21 | 30.16 | 1021.4 | ||||||
| 03 | 00:53 | N 7 | 10.00 | Mostly Cloudy | BKN009 | 26.1 | 24.1 | 92% | 19 | 30.15 | 1021.1 | ||||||
| 02 | 23:53 | N 9 | 10.00 | Mostly Cloudy | BKN010 | 28 | 25 | 88% | 20 | 30.13 | 1020.5 | ||||||
| 02 | 22:53 | N 13 | 6.00 | Light Snow Fog/Mist | FEW007 OVC013 | 30 | 27 | 88% | 21 | 30.12 | 1020.0 | ||||||
| 02 | 21:53 | N 14 | 9.00 | Overcast | OVC015 | 30.9 | 26.1 | 34 | 30.9 | 82% | 21 | 30.11 | 1019.6 | ||||
| 02 | 20:53 | N 18 | 5.00 | Light Snow Fog/Mist | OVC013 | 30.9 | 27 | 85% | 20 | 30.09 | 1019.2 | ||||||
| 02 | 19:53 | N 16 G 23 | 10.00 | Overcast | OVC016 | 33.1 | 26.1 | 75% | 23 | 30.07 | 1018.4 | ||||||
| 02 | 18:53 | N 16 | 2.00 | Light Snow Fog/Mist | SCT008 OVC017 | 33.1 | 28.9 | 85% | 23 | 30.06 | 1017.9 | ||||||
| 02 | 17:53 | N 18 | 5.00 | Light Snow | FEW008 OVC013 | 33.1 | 28 | 82% | 23 | 30.04 | 1017.2 | ||||||
| 02 | 16:53 | N 18 | 9.00 | Overcast | SCT010 OVC017 | 34 | 28.9 | 82% | 24 | 30.02 | 1016.6 | ||||||
| 02 | 15:53 | N 17 | 10.00 | Overcast | OVC011 | 33.1 | 28 | 33.1 | 30 | 82% | 23 | 30 | 1016.0 | ||||
| 02 | 14:53 | N 18 | 10.00 | Overcast | OVC011 | 32 | 28 | 85% | 21 | 29.98 | 1015.3 | ||||||
| 02 | 13:53 | N 15 | 10.00 | Overcast | OVC013 | 32 | 28 | 85% | 22 | 29.96 | 1014.6 | ||||||
| 02 | 12:53 | N 20 | 10.00 | Overcast | OVC013 | 32 | 28 | 85% | 21 | 29.93 | 1013.7 | ||||||
| 02 | 11:53 | N 21 | 3.00 | Light Snow Fog/Mist and Breezy | BKN010 OVC016 | 30.9 | 28 | 89% | 19 | 29.91 | 1013.0 | ||||||
| 02 | 10:53 | N 16 | 7.00 | Light Snow | OVC014 | 30.9 | 28 | 89% | 21 | 29.88 | 1012.0 | ||||||
| 02 | 09:53 | N 18 G 26 | 10.00 | Overcast | OVC007 | 30 | 28 | 30.9 | 30 | 92% | 19 | 29.85 | 1010.7 | ||||
| 02 | 08:53 | N 15 | 10.00 | Overcast | OVC009 | 30.9 | 28 | 89% | 21 | 29.82 | 1009.7 | ||||||
| 02 | 07:53 | N 16 | 10.00 | Overcast | BKN011 OVC026 | 30 | 27 | 88% | 19 | 29.78 | 1008.6 | ||||||
| 02 | 06:53 | NW 16 | 10.00 | Overcast | OVC023 | 30 | 27 | 88% | 19 | 29.75 | 1007.5 | ||||||
| 02 | 05:53 | N 20 | 10.00 | Overcast | OVC013 | 30.9 | 28 | 89% | 20 | 29.72 | 1006.5 | ||||||
| 02 | 04:53 | N 21 G 30 | 4.00 | Light Snow Fog/Mist and Breezy | FEW008 OVC017 | 30 | 28.9 | 96% | 18 | 29.69 | 1005.4 | ||||||
| 02 | 03:53 | N 20 G 30 | 4.00 | Light Snow Fog/Mist | OVC010 | 30.9 | 28.9 | 32 | 30.9 | 92% | 20 | 29.65 | 1004.2 | ||||
| 02 | 02:53 | N 20 G 29 | 5.00 | Light Snow Fog/Mist | SCT007 OVC015 | 30.9 | 28.9 | 92% | 20 | 29.63 | 1003.5 | ||||||
| 02 | 01:53 | N 20 G 29 | 7.00 | Light Snow | OVC014 | 30.9 | 28 | 89% | 20 | 29.6 | 1002.3 | ||||||
| 02 | 00:53 | N 29 G 41 | 8.00 | Unknown Precip and Windy | OVC015 | 30.9 | 28 | 89% | 17 | 29.55 | 1000.6 | ||||||
| 01 | 23:53 | N 23 G 35 | 10.00 | Overcast and Breezy | OVC008 | 32 | 28.9 | 88% | 20 | 29.52 | 999.7 | ||||||
| 01 | 22:53 | N 22 G 36 | 10.00 | Overcast and Breezy | OVC009 | 32 | 28.9 | 88% | 20 | 29.47 | 998.2 | ||||||
| 01 | 21:53 | N 26 G 37 | 10.00 | Overcast and Windy | OVC006 | 32 | 30 | 35.1 | 32 | 92% | 19 | 29.43 | 996.6 | ||||
| 01 | 20:53 | N 25 G 38 | 9.00 | Overcast and Breezy | OVC006 | 32 | 30 | 92% | 19 | 29.39 | 995.5 | ||||||
| 01 | 19:53 | N 25 G 35 | 5.00 | Unknown Precip Fog/Mist and Breezy | OVC006 | 33.1 | 30.9 | 92% | 21 | 29.36 | 994.2 | ||||||
| 01 | 18:53 | N 26 G 35 | 2.50 | Light Snow Fog/Mist and Windy | OVC007 | 33.1 | 30.9 | 92% | 21 | 29.33 | 993.2 | ||||||
| 01 | 17:53 | N 24 G 35 | 2.50 | Light Snow Fog/Mist and Breezy | OVC008 | 34 | 32 | 92% | 22 | 29.3 | 992.4 | ||||||
| 01 | 16:53 | N 24 G 35 | 3.00 | Light Snow Fog/Mist and Breezy | BKN006 OVC011 | 34 | 32 | 92% | 22 | 29.27 | 991.3 | ||||||
| 01 | 15:53 | N 28 G 36 | 6.00 | Fog/Mist and Windy | OVC005 | 34 | 32 | 34 | 32 | 92% | 22 | 29.24 | 990.4 | ||||
| 01 | 14:53 | N 23 G 36 | 9.00 | Overcast and Breezy | OVC005 | 33.1 | 32 | 96% | 21 | 29.23 | 989.7 | ||||||
| 01 | 13:53 | N 28 G 37 | 2.00 | Light Snow Fog/Mist and Windy | BKN007 OVC010 | 33.1 | 32 | 96% | 20 | 29.2 | 988.9 | ||||||
| 01 | 12:53 | N 22 | 5.00 | Light Snow Fog/Mist and Breezy | OVC007 | 33.1 | 32 | 96% | 22 | 29.18 | 988.2 | ||||||
| 01 | 11:53 | N 21 | 3.00 | Light Rain Fog/Mist and Breezy | OVC004 | 33.1 | 32 | 96% | 22 | 29.16 | 987.5 | ||||||
| 01 | 10:53 | N 18 | 1.25 | Light Rain Fog/Mist | OVC004 | 33.1 | 32 | 96% | 23 | 29.13 | 986.7 | ||||||
| 01 | 09:53 | N 16 | 1.75 | Unknown Precip Fog/Mist | OVC003 | 32 | 32 | 32 | 32 | 100% | 22 | 29.11 | 986.0 | ||||
| 01 | 08:53 | N 15 | 1.50 | Fog/Mist | OVC003 | 32 | 30.9 | 96% | 22 | 29.1 | 985.5 | ||||||
| 01 | 07:53 | N 15 | 2.00 | Fog/Mist | OVC003 | 32 | 30.9 | 96% | 22 | 29.09 | 985.2 | ||||||
| 01 | 06:53 | N 16 | 3.00 | Fog/Mist | OVC003 | 32 | 30.9 | 96% | 22 | 29.09 | 985.1 | ||||||
| 01 | 05:53 | N 15 | 5.00 | Light Snow Fog/Mist | OVC004 | 32 | 30.9 | 96% | 22 | 29.09 | 985.1 | ||||||
| 01 | 04:53 | N 16 | 8.00 | Light Snow | OVC006 | 32 | 30.9 | 96% | 22 | 29.1 | 985.4 | ||||||
| 01 | 03:53 | N 18 | 7.00 | Light Snow | OVC006 | 32 | 30.9 | 32 | 32 | 96% | 21 | 29.11 | 985.7 | ||||
| 01 | 02:53 | N 17 | 4.00 | Light Snow Fog/Mist | OVC005 | 32 | 30.9 | 96% | 22 | 29.12 | 986.2 | ||||||
| 01 | 01:53 | N 18 | 4.00 | Light Snow Fog/Mist | OVC004 | 32 | 30.9 | 96% | 21 | 29.13 | 986.5 | ||||||
| 01 | 00:53 | N 18 | 5.00 | Light Snow Fog/Mist | OVC005 | 32 | 30.9 | 96% | 21 | 29.14 | 986.8 | ||||||
| 30 | 23:53 | N 18 | 7.00 | Overcast | OVC004 | 32 | 30.9 | 96% | 21 | 29.15 | 987.1 | ||||||
| 30 | 22:53 | N 22 G 31 | 6.00 | Fog/Mist and Breezy | OVC005 | 32 | 30.9 | 96% | 20 | 29.14 | 986.9 | ||||||
| 30 | 21:53 | N 22 G 29 | 9.00 | Overcast and Breezy | OVC005 | 32 | 30.9 | 35.1 | 32 | 96% | 20 | 29.15 | 987.1 | ||||
| 30 | 20:53 | N 21 G 31 | 2.00 | Fog/Mist and Breezy | OVC004 | 33.1 | 30.9 | 92% | 22 | 29.15 | 987.3 | ||||||
| 30 | 19:53 | N 22 G 33 | 5.00 | Fog/Mist and Breezy | OVC005 | 34 | 30.9 | 89% | 23 | 29.16 | 987.6 | ||||||
| 30 | 18:53 | N 23 G 30 | 5.00 | Fog/Mist and Breezy | OVC005 | 34 | 30.9 | 89% | 23 | 29.18 | 988.2 | ||||||
| 30 | 17:53 | N 23 G 32 | 5.00 | Fog/Mist and Breezy | OVC007 | 35.1 | 30.9 | 85% | 24 | 29.19 | 988.5 | ||||||
| Date | Time (akdt) | Wind (mph) | Vis. (mi.) | Weather | Sky Cond. | Air | Dwpt | Max. | Min. | Relative Humidity | Wind Chill (°F) | Heat Index (°F) | altimeter (in) | sea level (mb) | 1 hr | 3 hr | 6 hr |
| 6 hour | |||||||||||||||||
| Temperature (ºF) | Pressure | Precipitation (in) | |||||||||||||||